Home > Weather > Pyatigorsk > Past weeks

Flag for Russia Weather for the Past 2 Weeks in Pyatigorsk, Russia

Now
28 °F

Passing clouds.


Feels Like: 25 °F
Forecast: 19 / 41 °F
Wind: 3 mph from Southeast

Location: Mineral'Nye Vody

Current Time: Feb 11, 2016 at 12:17:06 AM

Latest Report: Feb 10, 2016 at 11:30 PM


Visibility: N/A

Pressure: 30.12 "Hg (28.16 "Hg at 533m altitude)

Humidity: 93%

Dew point: 27 °F

Location of PyatigorskLocation

Historic Weather in Pyatigorsk — Graph

°F

Pyatigorsk Temperature Yesterday

Maximum temperature yesterday: 30 °F (at 2:30 PM)
Minimum temperature yesterday: 25 °F (at 12:00 AM)
Average temperature yesterday: 28 °F

High & Low Weather Summary for the Past Weeks

 TemperatureHumidityPressure
High64 °F (Feb 4, 1:00 PM)100% (Jan 28, 2:00 PM)30.45 "Hg (Jan 28, 2:00 PM)
Low-9 °F (Jan 27, 8:00 AM)27% (Feb 4, 12:30 PM)29.80 "Hg (Feb 6, 2:00 PM)
Average33 °F82%30.16 "Hg
* Reported Jan 26 11:00 PM — Feb 10 11:00 PM, Pyatigorsk, Weather by CustomWeather, © 2016

Note: Actual official high and low records may vary slightly from our data, if they occured in-between our weather recording intervals... More about our weather records

Advertising

Pyatigorsk Weather History for the Previous 24 Hours

 ConditionsComfort  
Time TempWeatherWind HumidityBarometerVisibility
11:00 PM
Wed, Feb 10
28 °FPassing clouds.3 mph93%30.15 "HgN/A
10:30 PM28 °FPassing clouds.6 mph93%30.15 "HgN/A
10:00 PM28 °FPassing clouds.3 mph93%30.15 "HgN/A
9:30 PM28 °FPassing clouds.1 mph93%30.15 "HgN/A
9:00 PM28 °FPassing clouds.1 mph93%30.15 "HgN/A
8:30 PM28 °FPassing clouds.1 mph93%30.15 "HgN/A
8:00 PM28 °FPassing clouds.3 mph93%30.18 "HgN/A
7:30 PM28 °FPassing clouds.6 mph86%30.18 "HgN/A
7:00 PM28 °FOvercast.6 mph93%30.18 "HgN/A
6:30 PM28 °FLow clouds.8 mph93%30.18 "HgN/A
6:00 PM28 °FLow clouds.6 mph93%30.18 "HgN/A
5:30 PM28 °FLow clouds.8 mph93%30.18 "HgN/A
5:00 PM30 °FOvercast.6 mph86%30.18 "HgN/A
4:30 PM30 °FOvercast.8 mph86%30.18 "HgN/A
4:00 PM30 °FOvercast.6 mph86%30.21 "HgN/A
3:30 PM30 °FOvercast.6 mph86%30.21 "HgN/A
3:00 PM30 °FOvercast.8 mph86%30.18 "HgN/A
2:30 PM30 °FLow clouds.6 mph86%30.21 "HgN/A
2:00 PM28 °FLow clouds.6 mph93%30.21 "HgN/A
1:30 PM28 °FLow clouds.3 mph100%30.21 "HgN/A
1:00 PM28 °FLow clouds.3 mph100%30.21 "HgN/A
12:30 PM28 °FSnow flurries. Low clouds.6 mph100%30.24 "HgN/A
12:00 PM28 °FSnow flurries. Low clouds.3 mph100%30.24 "HgN/A
11:30 AM28 °FSnow flurries. Low clouds.3 mph93%30.27 "HgN/A
11:00 AM28 °FSnow flurries. Low clouds.6 mph93%30.27 "HgN/A
10:30 AM27 °FSnow flurries. Low clouds.3 mph100%30.27 "HgN/A
10:00 AM27 °FSnow flurries. Low clouds.3 mph100%30.27 "HgN/A
9:30 AM27 °FSnow flurries. Low clouds.3 mph100%30.30 "HgN/A
9:00 AM27 °FLow clouds.6 mph100%30.30 "HgN/A
8:30 AM27 °FLow clouds.6 mph100%30.30 "HgN/A
8:00 AM27 °FLow clouds.6 mph100%30.30 "Hg6 mi
7:00 AM27 °FLow clouds.6 mph100%30.30 "Hg4 mi
6:30 AM27 °FIce fog.6 mph100%30.30 "Hg2 mi
6:00 AM27 °FIce fog.6 mph100%30.30 "Hg1 mi
5:30 AM27 °FChilly.6 mph100%30.30 "Hg1 mi
5:00 AM25 °FCold.6 mph100%30.30 "Hg1 mi
4:30 AM25 °FCold.8 mph100%30.30 "Hg1 mi
3:30 AM25 °FCold.8 mph100%30.30 "Hg1 mi
3:00 AM25 °FIce fog.10 mph100%30.30 "Hg1 mi
2:30 AM27 °FPassing clouds.8 mph93%30.30 "Hg6 mi
2:00 AM27 °FPassing clouds.10 mph93%30.30 "HgN/A
1:30 AM27 °FPassing clouds.13 mph93%30.30 "HgN/A
12:30 AM25 °FClear.8 mph93%30.30 "HgN/A
12:00 AM25 °FClear.8 mph100%30.33 "HgN/A
Weather by CustomWeather, © 2016

See weather overviewHow to use our weather pages